This is the latest recevied weather packets stored in our database for station/object KB3KBR-WX. If no packets are shown the sender has not sent any weather packets the latest 10 day(s).
| Time | Temp. | Humidity | Pressure | Rain* | Wind** | Luminosity | Snow |
|---|---|---|---|---|---|---|---|
| 1778107021 | 9.44° C | 59% | 1009.2 hPa | 0 mm | - | - | - |
| 1778106721 | 9.44° C | 59% | 1009 hPa | 0 mm | - | - | - |
| 1778106421 | 9.44° C | 57% | 1008.9 hPa | 0 mm | - | - | - |
| 1778106091 | 9.44° C | 55% | 1008.8 hPa | 0 mm | - | - | - |
| 1778105791 | 10° C | 60% | 1008.7 hPa | 0 mm | - | - | - |
| 1778105461 | 10° C | 56% | 1008.8 hPa | 0 mm | - | - | - |
| 1778105160 | 10° C | 59% | 1008.7 hPa | 0 mm | - | - | - |
| 1778104861 | 10° C | 60% | 1008.5 hPa | 0 mm | - | - | - |
| 1778104561 | 10° C | 59% | 1008.5 hPa | 0 mm | - | - | - |
| 1778104231 | 10° C | 59% | 1008.4 hPa | 0 mm | - | - | - |
| 1778103931 | 10° C | 59% | 1008.4 hPa | 0 mm | - | - | - |
| 1778103601 | 10° C | 60% | 1008.3 hPa | 0 mm | - | - | - |
| 1778103301 | 10° C | 60% | 1008.2 hPa | 0 mm | - | - | - |
| 1778102971 | 10° C | 60% | 1008.2 hPa | 0 mm | - | - | - |
| 1778102641 | 10.56° C | 61% | 1008.1 hPa | 0 mm | - | - | - |
| 1778102311 | 10.56° C | 62% | 1008.2 hPa | 0 mm | - | - | - |
| 1778101981 | 10.56° C | 61% | 1008.2 hPa | 0 mm | - | - | - |
| 1778101681 | 10.56° C | 60% | 1008 hPa | 0 mm | - | - | - |
| 1778101351 | 11.11° C | 61% | 1007.9 hPa | 0 mm | - | - | - |
| 1778100720 | 11.11° C | 65% | 1007.6 hPa | 0 mm | - | - | - |
| 1778100421 | 10.56° C | 64% | 1007.5 hPa | 0 mm | - | - | - |
| 1778100133 | 10.56° C | 64% | 1007.5 hPa | 0 mm | - | - | - |
| 1778100091 | 10.56° C | 64% | 1007.5 hPa | 0 mm | - | - | - |
| 1778099791 | 10.56° C | 67% | 1007.5 hPa | 0 mm | - | - | - |
| 1778099491 | 10.56° C | 68% | 1007.6 hPa | 0 mm | - | - | - |
* Rain latest hour (hover to see other rain measurements)
** Current wind speed in m/s (hover to see current wind gust speed)